カタログに戻る

CHINASAT 6A

運用中通信GEO
NORAD 37150·PAYLOAD·🇨🇳 China

打ち上げ Sep 4, 2010 から Xichang Satellite Launch Center

Loading…

TLE

最新Source: Space-Track

元期: Sep 14, 2026, 16:34 UTC

1 37150U 10042A   26257.69062821  .00000108  00000-0  00000-0 0  9998
2 37150   4.4506  76.0603 0001644 170.9454 218.5831  0.99697400 58773

AllMySatでCHINASAT 6Aをリアルタイム追跡

Download on the App Store